Location: Deer Path Park
(40.5570°N, 74.8450°W)
Time: 09:45:37
(UTC-04:00)

Iridium 49 - Visible Passes

Search period start: 22 October 2014 00:00
Search period end: 01 November 2014 00:00
Orbit: 776 x 779 km, 86.4° (Epoch: 21 October)

Date Brightness Start Highest point End Pass type
(mag) Time Alt. Az. Time Alt. Az. Time Alt. Az.
22 Oct 9.0 05:23:33 10° NE 05:26:52 17° ENE 05:30:10 10° ESE visible
22 Oct 8.2 20:00:09 10° SW 20:04:28 26° WNW 20:08:48 10° NNW visible
23 Oct 6.2 06:29:14 10° N 06:34:28 81° E 06:39:40 10° S visible
23 Oct 7.1 19:25:45 10° SSW 19:30:45 47° W 19:35:47 10° N visible
24 Oct 7.3 05:55:54 10° N 06:00:53 43° E 06:05:48 10° SSE visible
24 Oct 6.1 18:51:58 10° S 18:57:10 88° W 19:02:25 10° N visible
25 Oct 8.4 05:22:58 10° NNE 05:27:09 24° ENE 05:31:18 10° SE visible
25 Oct 8.8 20:01:11 10° WSW 20:04:44 18° WNW 20:08:17 10° NNW visible
26 Oct 9.1 04:50:52 10° NE 04:53:17 13° ENE 04:55:41 10° E visible
26 Oct 6.0 06:29:21 10° N 06:34:33 70° W 06:39:43 10° S visible
26 Oct 7.9 19:26:17 10° SW 19:30:56 33° W 19:35:37 10° NNW visible
27 Oct 6.5 05:55:51 10° N 06:01:02 63° E 06:06:10 10° SSE visible
27 Oct 6.7 18:52:09 10° SSW 18:57:17 61° W 19:02:27 10° N visible
28 Oct 7.7 05:22:39 10° NNE 05:27:23 34° E 05:32:04 10° SE visible
28 Oct 6.0 18:18:35 10° S 18:23:45 73° E 18:28:57 10° N visible
28 Oct 9.1 20:02:51 10° W 20:05:03 13° WNW 20:07:15 10° NW visible
29 Oct 8.6 04:49:56 10° NNE 04:53:36 19° ENE 04:57:14 10° ESE visible
29 Oct 6.2 06:29:35 10° NNW 06:34:35 48° W 06:39:33 10° SSW visible
29 Oct 8.5 19:27:06 10° SW 19:31:10 23° WNW 19:35:17 10° NNW visible
30 Oct 6.0 05:55:53 10° N 06:01:08 89° W 06:06:20 10° S visible
30 Oct 7.5 18:52:32 10° SSW 18:57:26 41° W 19:02:22 10° NNW visible
31 Oct 6.9 05:22:29 10° N 05:27:33 49° E 05:32:35 10° SSE visible
31 Oct 6.3 18:18:38 10° S 18:23:49 78° W 18:29:03 10° N visible
